CZ-3B DEB, 39337

Orbit data source: Space-Track

CZ-3B DEB, 39337 is space debris in HEO originally from a launch on Sat, 04 Sep 2010 UTC launched from the Xichang Space Center, China (XSC). Debris objects in space refer to the collection of defunct objects orbiting the Earth. Examples of debris include non-operational satellites, rocket bodies, and fragments generated from explosions, collisions, or faulty payload assembly.

Loading next visibility...
Identifier
39337, 2010-042J
Orbit
HEO
Country
Flag of CNCN / PRC
Related business
Manufacturer
CALT
Mission
Spacecraft
Bus & Motor
Unknown
Mass
Unknown
Launch date (UTC)
2010-09-04 (15 years ago)
Launch vehicle
Unknown
Launch site
Xichang Space Center, China (XSC)
Object type
Payload
Rocket body
Debris
Shape & HBR
Unknown shape, 0.3 m
Radar Cross Section
Medium (>0.1 m² and <1 m²)

Expand to show TLE details & history
Last TLE update: 2 weeks ago

TLE from 2 weeks ago
0 CZ-3B DEB
1 39337U 10042J   25301.02576537 -.00000244  00000-0 -18193-2 0  9994
2 39337  24.4410 177.9736 7456826 187.0978 148.0649  1.84154168 78421
Epoch: 2025-10-28T00:37Z
TLE epoch observation values (Epoch: 2025-10-28T00:37:06.127Z)
Latitude
0.00007°
Longitude
132.1094°
Altitude
41,619.557 km
Speed
1.56 km/s
True Right ascension
11h 52m 00s
True Declination
0° 00' 00"
Sunlit
Object was in daylight at epoch
Visualization orbit readout
Latitude
Unknown
Longitude
Unknown
Altitude
Unknown
Speed
Unknown
Apparent Right ascension
Unknown
Apparent Declination
Unknown
Sunlit
N/A
Visualization observer readout
Local Sidereal Time
02:53:57
Azimuth
Unknown
Elevation
Unknown
Doppler factor
Unknown
Orbital elements
Apogee altitude
42,709.691 km
Perigee altitude
773.157 km
Semi-major axis
28,119.561 km
Eccentricity
0.74568
Inclination
24.441°
RAAN
177.9736°
Arg. of periapsis
187.0978°
True anomaly
172.91377°
Mean anomaly
148.0649°
Eccentric anomaly
161.57121°
Mean motion
0.46029 °/min
Orbital period
782.12 mins
BSTAR
-0.0018193
Loading maneuver chart data...
Computing Atmospheric mass density...
Loading historical data...
Loading historical data...
Loading historical data...
Loading historical data...
Loading historical data...
Loading historical data...
Loading historical data...

Documentation

Showing up to 5 results
|